Flag for Germany Weather past 2 weeks in Dortmund, North Rhine-Westphalia, Germany

Now
61 °F

Clear.


Feels Like: 61 °F
Forecast: 71 / 92 °F
Wind: 1 mph from North

Location: Duesseldorf

Current Time: Jul 1, 2015 at 4:25:30 AM

Latest Report: Jul 1, 2015 at 4:00 AM


Visibility: 19 mi

Pressure: 30.09 "Hg

Humidity: 79%

Dew point: 54 °F

Location of DortmundLocation

Historic Weather in Dortmund — Graph

°F

Dortmund temperature yesterday

Maximum temperature yesterday: 83 °F (at 6:00 PM)
Minimum temperature yesterday: 55 °F (at 6:00 AM)
Average temperature yesterday: 70 °F

Past Weeks' High & Low Weather Summary

 TemperatureHumidityPressure
High83 °F (Jun 30, 6:00 PM)98% (Jun 22, 10:00 PM)30.31 "Hg (Jun 22, 10:00 PM)
Low42 °F (Jun 17, 4:00 AM)32% (Jun 30, 4:00 PM)29.72 "Hg (Jun 22, 8:00 PM)
Average62 °F69%30.09 "Hg
* Reported Jun 16 3:00 AM — Jul 1 3:00 AM, Dortmund, Weather by CustomWeather, © 2015

Note: Actual official high and low records may vary slightly from our data, if they occured in-between our weather recording intervals... More about our weather records

Advertising

Dortmund weather history for previous 24 hours

 ConditionsComfort  
Time TempWeatherWind HumidityBarometerVisibility
3:00 AM
Wed, Jul 1
65 °FClear.1 mph68%30.09 "Hg19 mi
2:00 AM66 °FClear.2 mph63%30.10 "Hg19 mi
1:00 AM68 °FClear.3 mph59%30.10 "Hg19 mi
12:00 AM69 °FClear.5 mph56%30.10 "Hg19 mi
11:00 PM
Tue, Jun 30
72 °FPassing clouds.3 mph50%30.11 "Hg19 mi
10:00 PM74 °FPassing clouds.5 mph49%30.10 "Hg16 mi
9:00 PM79 °FSunny.3 mph38%30.09 "Hg16 mi
8:00 PM81 °FSunny.5 mph37%30.09 "Hg25 mi
7:00 PM83 °FSunny.5 mph37%30.09 "Hg25 mi
6:00 PM83 °FSunny.2 mph32%30.10 "Hg25 mi
4:00 PM82 °FSunny.2 mph32%30.13 "Hg25 mi
3:00 PM81 °FSunny.2 mph33%30.14 "Hg25 mi
2:00 PM79 °FSunny.2 mph36%30.16 "Hg22 mi
1:00 PM78 °FSunny.2 mph37%30.17 "Hg22 mi
12:00 PM75 °FPassing clouds.1 mph47%30.18 "Hg22 mi
10:00 AM71 °FSunny.1 mph59%30.20 "Hg19 mi
9:00 AM69 °FSunny.1 mph61%30.20 "Hg22 mi
8:00 AM64 °FSunny.2 mph80%30.19 "Hg19 mi
7:00 AM58 °FPassing clouds.1 mph91%30.19 "Hg22 mi
6:00 AM55 °FFog.1 mph96%30.19 "Hg22 mi
5:00 AM55 °FFog.1 mph96%30.18 "Hg19 mi
4:00 AM56 °FPassing clouds.1 mph95%30.18 "Hg19 mi
Weather by CustomWeather, © 2015

See weather overviewHow to use our weather pages